Showing default

CENTISPACE-1 S9, 62578

Orbit data source: Space-Track

CENTISPACE-1 S9, 62578 is a payload satellite owned by Centispace (CN) in LEO that was launched on Mon, 13 Jan 2025 UTC via a JIELONG-3 launch vehicle from the Yellow Sea Launch Area, China (YSLA). Payload-class satellites include a variety of spacecraft equipped with specific instruments for various scientific and technological missions. These include communications satellites like Starlink; space stations such as the ISS; scientific satellites like the Hubble; Earth observation satellites from companies like Planet Labs, Umbra, and HawkEye 360; GPS; miniature CubeSats for education and research; and military/defense satellites.

Loading next visibility...
Identifier
62578, 2025-007D
Orbit
LEO
Country
Flag of CNCN / PRC
Related business
Manufacturer
DFH Shenzhen
Mission
Operational Commercial Nav/Com
Bus & Motor
WK01, Unknown motor
Mass
140 kg wet, 140 kg dry
Launch date (UTC)
2025-01-13 (10 months ago)
Launch vehicle
JIELONG-3
Launch site
Yellow Sea Launch Area, China (YSLA)
Object type
Payload
Rocket body
Debris
Shape & HBR
Box + 2 Pan, 1.0 m
Radar Cross Section
0.833 m², Medium (>0.1 m² and < 1m²)

Expand to show TLE details & history
Last TLE update: 1 day ago

TLE from 1 day ago
0 CENTISPACE-1 S9
1 62578U 25007D   25306.05531182  .00000138  00000-0  96498-4 0  9995
2 62578  54.9830  29.4519 0030373 110.4175 250.0074 14.39019858 42961
Epoch: 2025-11-02T01:19Z
TLE epoch observation values (Epoch: 2025-11-02T01:19:38.941Z)
Latitude
-0.00003°
Longitude
-32.03691°
Altitude
770.261 km
Speed
7.466 km/s
True Right ascension
01h 57m 48s
True Declination
0° 00' 00"
Sunlit
Object was in full shadow at epoch
Visualization orbit readout
Latitude
Unknown
Longitude
Unknown
Altitude
Unknown
Speed
Unknown
Apparent Right ascension
Unknown
Apparent Declination
Unknown
Sunlit
N/A
Visualization observer readout
Local Sidereal Time
07:54:28
Azimuth
Unknown
Elevation
Unknown
Doppler factor
Unknown
Orbital elements
Apogee altitude
783.391 km
Perigee altitude
740.02 km
Semi-major axis
7,139.842 km
Eccentricity
0.00304
Inclination
54.983°
RAAN
29.4519°
Arg. of periapsis
110.4175°
True anomaly
249.68075°
Mean anomaly
250.0074°
Eccentric anomaly
249.84403°
Mean motion
3.59758 °/min
Orbital period
100.07 mins
BSTAR
0.000096498
Loading maneuver chart data...
Computing Atmospheric mass density...
Loading historical data...
Loading historical data...
Loading historical data...
Loading historical data...
Loading historical data...
Loading historical data...
Loading historical data...

Documentation

Showing up to 5 results
|